STARLINK-35097, 65393

Orbit data source: Space-Track

STARLINK-35097, 65393 is a payload satellite owned by SpaceX/Seattle (US) in SSO that was launched on Sat, 30 Aug 2025 UTC via an FALCON 9 launch vehicle from the Air Force Western Test Range (AFWTR). Payload-class satellites include a variety of spacecraft equipped with specific instruments for various scientific and technological missions. These include communications satellites like Starlink; space stations such as the ISS; scientific satellites like the Hubble; Earth observation satellites from companies like Planet Labs, Umbra, and HawkEye 360; GPS; miniature CubeSats for education and research; and military/defense satellites.

Loading next visibility...
Identifier
65393, 2025-191Q
Orbit
SSO
Country
Flag of USUS
Related business
Manufacturer
SpaceX/Seattle
Mission
Operational Commercial Communications
Bus & Motor
STARLINK V2MO, Unknown motor
Mass
575 kg wet, ~530 kg dry
Launch date (UTC)
2025-08-30 (7 months ago)
Launch vehicle
FALCON 9
Launch site
Air Force Western Test Range (AFWTR)
Object type
Payload
Rocket body
Debris
Shape & HBR
Box + 2 Pan, 17.7 m
Radar Cross Section
36.964 m², Large (>1 m²)

Expand to show TLE details & history
Last TLE update: 14 hours ago

TLE from 14 hours ago
0 STARLINK-35097
1 65393U 25191Q   26093.64199684  .00006133  00000-0  42875-3 0  9993
2 65393  97.6038 326.1137 0002470  90.2289 269.9221 15.05659530 32574
Epoch: 2026-04-03T15:24Z
TLE epoch observation values (Epoch: 2026-04-03T15:24:28.526Z)
Latitude
-0.00004°
Longitude
-96.97835°
Altitude
552.55 km
Speed
7.586 km/s
True Right ascension
21h 44m 27s
True Declination
0° 00' 00"
Sunlit
Object was in daylight at epoch
Visualization orbit readout
Latitude
Unknown
Longitude
Unknown
Altitude
Unknown
Speed
Unknown
Apparent Right ascension
Unknown
Apparent Declination
Unknown
Sunlit
N/A
Visualization observer readout
Local Sidereal Time
11:23:03
Azimuth
Unknown
Elevation
Unknown
Doppler factor
Unknown
Orbital elements
Apogee altitude
548.186 km
Perigee altitude
544.765 km
Semi-major axis
6,924.612 km
Eccentricity
0.00025
Inclination
97.6038°
RAAN
326.1137°
Arg. of periapsis
90.2289°
True anomaly
269.8938°
Mean anomaly
269.9221°
Eccentric anomaly
269.90795°
Mean motion
3.7666 °/min
Orbital period
95.58 mins
BSTAR
0.00042875
Loading maneuver chart data...
Computing Atmospheric mass density...
Loading historical data...
Loading historical data...
Loading historical data...
Loading historical data...
Loading historical data...
Loading historical data...
Loading historical data...

Documentation

Showing up to 5 results
|